Вернуться в каталог

CZ-6A DEB

АктивенPO
NORAD 61843·DEBRIS·🇨🇳 China

Запущен Aug 6, 2024 с Taiyuan Satellite Launch Center

Loading…

Ближайшие Пролёты (ближайшие 24 часа)

TLE

СвежийSource: Space-Track

Эпоха: Sep 14, 2026, 03:11 UTC

1 61843U 24140ADK 26257.13268067  .00003659  00000-0  98651-3 0  9993
2 61843  88.3462 200.3852 0099154  71.9760 289.2218 14.44801887108481

Отслеживайте CZ-6A DEB в реальном времени с AllMySat

Download on the App Store